{"data":{"norad_id":62516,"epoch":"2026-09-21T04:42:30.210336Z","epoch_age_seconds":114340,"freshness":"FRESH","line1":"1 62516U 25004F   26264.19618299  .00129266  00000+0  99045-3 0  9991","line2":"2 62516  43.0007 332.5493 0002855 134.3123 225.7979 15.70953918 97951","mean_motion":15.70953918,"eccentricity":0.0002855,"inclination_deg":43.0007,"raan_deg":332.5493,"arg_perigee_deg":134.3123,"mean_anomaly_deg":225.7979,"bstar":0.00099045,"rev_number":9795,"period_min":91.664050962951,"perigee_km":354.24683777963,"apogee_km":358.09212678102,"semimajor_km":6734.3064822803,"source":"CELESTRAK","updated_at":"2026-09-22T09:00:49.622392Z"}}